星链-30441 (STARLINK-30441 )

导读

STARLINK-30441是美国太空探索技术公司(SpaceX)研发制造的星链(Starlink)低轨互联网星座卫星,于2023年9月16日发射,采用Starlink v2.0 mini平台,运行在近地轨道,近地点约474公里,远地点约476公里,轨道倾角53.157°,为全球提供卫星互联网接入服务,目前仍在轨正常工作。

Basic Information
目录编号:
57869
目录名称:
STARLINK-30441
国际标识:
2023-144F
轨道中心:
EARTH
卫星名称:
星链-30441
卫星全名:
星链-30441 (STARLINK-30441 )
卫星状态:
在轨 (已飞行1084 天)
发射日期:
2023-09-16 UTC
国别 :
美国 (US)
星等 :
--
Orbit Information
数据来源 国际轨道数据
星历时间: 2026-09-04T00:43:34+0800
18小时前
查看轨道信息
半长轴: 6861.225km
偏心率: 0.0000456
轨道倾角: 43.001°
近地点辐角 215.438°
升交点赤经 359.673°
平近点角 144.644°
近地点: 482.775km
远地点: 483.401km
周期: 94.268分钟
每日圈数: 15.275671
Detailed Information
固有亮度:
5
最大亮度:
0.3
卫星平台:
Starlink v2.0 mini
覆盖范围:
全球
运营商:
太空探索技术公司
运营商所在国:
美国
制造商(研发单位):
太空探索技术公司
制造商所在国:
美国
使用方式:
暂无
Satellite Introduction
星链(Starlink)计划是由太空探索技术公司(SpaceX)提出的一个巨型低轨卫星互联网星座项目,计划在2019年至2024年间在太空搭建由约1.2万颗卫星组成的“星链”网络,其中1584颗将部署在地球上空550千米处的近地轨道,并从2020年开始工作。该卫星仍在工作。
2D Orbit Map
3D Orbit Map
Orbit Altitude Analysis Chart
Orbit Inclination Analysis Chart
Orbit Comprehensive Analysis Chart
View Comprehensive Chart
Conjunction Data List
Event ID Objects TCA Miss Dist (km) Collision Risk Probability Collision Risk Index (CRI) Action
CDM_260828-163705-786906-632821
2026-08-28T
16:37:20+0000
1.008 km
极远距离
1.422123E-5 中风险 0.58
CDM_260828-150305-786906-632821
2026-08-28T
15:03:11+0000
1.543 km
极远距离
3.395437E-6 低风险 0.46